Location: Highland Acres
(36.3070°N, 86.6361°W)
Time: 04:34:38
(UTC+00:00)

Daily predictions for brighter satellites

Satellite Brightness Start Highest point End
(mag) Time Altitude Azimuth Time Altitude Azimuth Time Altitude Azimuth
Aureole 3 3.7 00:00:01 10° NNE 00:02:46 25° ENE 00:05:19 10° SE
Cosmos 1939 Rocket 3.3 00:01:14 10° S 00:05:20 68° W 00:09:26 10° NNW
ERS-2 2.0 00:01:52 10° NNE 00:05:30 73° ESE 00:09:06 10° S
BREEZE-M DEB (TANK) 1.6 00:03:25 10° NW 00:06:09 70° NE 00:07:21 24° ESE
Okean 1-7 Rocket 3.6 00:03:09 10° S 00:07:41 88° W 00:12:16 10° N
Cosmos 44 3.6 00:07:03 10° S 00:11:24 42° ESE 00:14:12 21° NE
Nadezhda 4 Rocket 3.9 00:06:57 10° S 00:13:14 82° E 00:19:28 10° N
Cosmos 1726 Rocket 4.5 00:10:43 10° NNW 00:14:57 51° W 00:19:12 10° S
PSLV R/B 3.9 00:10:56 10° NNE 00:15:09 76° ESE 00:19:21 10° S
Cosmos 1626 Rocket 3.5 00:13:20 10° S 00:17:37 59° E 00:21:56 10° NNE
CZ-4 R/B 1.4 00:14:09 10° SSE 00:18:12 59° ENE 00:22:13 10° N
EXPRESS MD2 4.3 00:12:25 10° NW 00:19:07 41° NNE 00:20:41 29° ENE
ARGOS 3.6 00:15:30 10° SE 00:20:20 36° ENE 00:25:12 10° N
Lacrosse 5 2.7 00:16:29 10° NNW 00:20:54 30° NE 00:22:02 27° ENE
NOSS 2-1 (E) 3.3 00:17:54 10° S 00:21:12 39° ESE 00:21:39 37° E
ATLAS 3B R/B 4.5 00:15:21 10° NW 00:21:39 36° WSW 00:28:10 10° S
Aureole 2 Rocket 3.9 00:19:25 10° SW 00:22:04 30° WNW 00:24:49 10° N
CZ-4B R/B 3.9 00:24:31 10° NNW 00:27:10 22° WNW 00:29:45 10° WSW
Hubble Space Telescope 2.3 00:24:52 10° SW 00:28:21 26° S 00:30:03 20° SE
Cosmos 1689 Rocket 2.3 00:27:27 22° N 00:29:07 63° WNW 00:31:55 10° SSW
CSL-04 Debris 4.3 00:26:07 10° SE 00:31:13 46° ENE 00:36:21 10° N
COSMO-SKYMED 1 4.3 00:29:31 10° N 00:33:23 32° WNW 00:37:14 10° SW
Cosmos 990 Rocket 3.9 00:28:13 10° S 00:33:23 66° ESE 00:36:47 22° NNE
CZ-2C R/B 3.0 00:31:47 22° NE 00:35:06 44° E 00:40:26 10° S
IRS-1C Rocket 4.4 00:31:01 10° S 00:36:13 68° WSW 00:41:28 10° NNW
NOAA 15 4.5 00:33:58 10° SSE 00:39:12 86° ENE 00:44:30 10° NNW
Cosmos 1844 4.1 00:33:42 10° SSW 00:39:15 63° WNW 00:44:56 10° NNE
COSMOS 2455 4.5 00:34:46 10° WSW 00:40:01 31° NW 00:45:17 10° N
Okean-O 2.6 00:35:59 10° SSE 00:40:25 86° WSW 00:44:53 10° NNW
Cosmos 2026 Rocket 3.8 00:44:12 10° S 00:50:14 74° E 00:56:24 10° N
Meteor 2-19 Rocket 4.4 00:47:46 10° S 00:53:47 58° E 00:57:05 27° NNE
CZ-2C R/B 4.4 00:50:50 10° SSW 00:55:40 40° W 01:00:49 10° NNW
H-2A R/B 2.2 00:51:26 10° S 00:56:20 70° WSW 01:01:23 10° NNW
Cosmos 1602 Rocket 3.9 00:53:32 10° SSW 00:57:48 64° W 01:00:31 22° N
Meteor 1-11 4.1 00:53:55 10° S 00:59:34 63° E 01:00:48 50° NE
Cosmos 1844 Rocket 4.2 00:55:29 10° SW 01:00:33 33° WNW 01:05:38 10° N
YAOGAN 1 3.4 00:56:34 10° S 01:00:45 50° W 01:04:58 10° NNW
Cosmos 923 Rocket 3.9 00:56:13 10° NNW 01:01:34 88° ENE 01:06:36 11° SSE
Helios 1A Rocket 3.4 00:57:54 10° S 01:01:58 61° WSW 01:06:05 10° NNW
Cosmos 1898 Rocket 3.6 00:57:34 10° SSW 01:02:50 77° WNW 01:05:07 35° N
Cosmos 158 Rocket 4.1 00:59:23 10° NNW 01:04:46 79° WSW 01:10:08 10° SSE
Cosmos 1680 Rocket 3.4 01:03:37 10° NNW 01:08:26 71° NNE 01:08:26 71° NNE
Cosmos 2278 Rocket 3.0 01:04:31 10° S 01:08:10 36° SSE 01:08:10 36° SSE
Cosmos 2098 Rocket 4.2 01:03:22 10° S 01:10:11 86° E 01:17:41 10° N
USA 267 3.2 01:13:39 48° NE 01:15:43 83° NW 01:22:15 10° SW
X-37B 3.6 01:13:57 10° WNW 01:14:40 14° NW 01:14:40 14° NW
SJ 16-02 4.1 01:17:33 10° WSW 01:20:22 17° WNW 01:23:13 10° NNW
CSL-04 Rocket 4.0 01:16:48 10° S 01:22:06 64° WSW 01:27:32 10° NNW
Iridium 4 Rocket 4.3 01:23:22 10° NNW 01:28:45 50° W 01:33:41 10° SSW
Cosmos 1937 Rocket 4.2 01:32:34 10° SW 01:37:42 50° WNW 01:37:47 50° WNW
Lacrosse 5 3.9 01:59:13 10° NW 02:01:18 23° WNW 02:01:18 23° WNW
SJ 16-02 4.1 09:54:02 14° ESE 09:54:02 14° ESE 09:54:50 10° SE
ATLAS 3B CENTAUR R/B 4.5 09:56:48 30° S 09:56:48 30° S 10:07:58 10° SE
Atlas Centaur 2 3.8 09:56:30 37° SSE 09:56:58 38° SSE 10:04:30 10° E
Cosmos 2237 Rocket 4.2 10:08:17 10° SSE 10:12:52 26° ESE 10:17:28 10° NE
Cosmos 2333 Rocket 3.8 10:20:17 24° NNE 10:20:17 24° NNE 10:22:26 10° NNE
Cosmos 2219 Rocket 3.6 10:20:31 27° NNE 10:20:31 27° NNE 10:22:58 10° NNE
Cosmos 1455 Rocket 4.1 10:27:59 10° SSE 10:32:08 44° E 10:36:16 10° NNE
IRIDIUM 104 4.4 10:31:21 10° S 10:36:32 76° E 10:41:45 10° N
COSMOS 2428 3.2 10:38:26 45° N 10:38:26 45° N 10:42:27 10° NNE
ERS-2 4.3 10:37:06 10° SE 10:40:04 24° ENE 10:41:48 17° NNE
Cosmos 1953 4.1 10:38:58 10° SSE 10:42:29 31° E 10:45:59 10° NNE
Cosmos 1980 4.3 10:40:01 10° S 10:45:31 55° ESE 10:51:02 10° NNE
IRIDIUM 114 4.2 10:40:26 10° S 10:45:39 87° W 10:50:54 10° N
OAO 1 Rocket 4.4 10:50:46 63° SW 10:51:26 71° S 10:56:44 10° E
CZ-4B R/B 3.0 10:48:27 10° SSE 10:50:21 31° SE 10:50:21 31° SE
deb Chang Zheng 4 3.8 10:48:07 10° NNE 10:52:20 66° ESE 10:56:32 10° S
Cosmos 540 Rocket 3.9 10:48:40 10° S 10:53:40 61° ESE 10:58:43 10° NNE
IRIDIUM 103 4.1 10:49:37 10° S 10:54:48 71° W 11:00:01 10° N
Haruka 3.7 10:54:44 42° SW 10:56:13 57° S 11:09:27 10° ESE
BREEZE-M DEB (TANK) 2.3 10:58:46 64° E 10:58:46 64° E 11:03:19 10° NE
Cosmos 1461 3.6 11:01:19 46° NNW 11:01:19 46° NNW 11:05:08 10° NNE
CZ-2C R/B 2.1 10:59:52 39° S 11:00:28 41° SSE 11:04:16 10° E
ADEOS 3.7 10:56:24 10° N 11:08:37 - SSW 11:00:59 50° NW
Cosmos 990 Rocket 3.9 10:59:51 28° NNW 11:02:37 84° ENE 11:07:45 10° SSE
Meteor 2-10 4.1 10:58:24 10° SSW 11:04:00 63° W 11:09:31 10° N
OAO 2 Rocket 3.2 11:04:20 56° WSW 11:05:20 77° S 11:10:15 10° E
IRIDIUM 106 4.5 11:08:09 10° SSW 11:13:08 46° W 11:18:10 10° N
Cosmos 1892 Rocket 3.4 11:12:41 40° NNW 11:14:05 63° W 11:18:25 10° S
SL-24 R/B 4.4 11:10:35 10° S 11:13:26 40° SW 11:13:26 40° SW
Meteor 1-24 Rocket 4.3 11:16:46 33° WSW 11:16:46 33° WSW 11:21:18 10° SSW
Cosmos 1763 Rocket 4.0 11:21:22 35° WNW 11:21:38 35° WNW 11:26:24 10° N
SAR-Lupe-4 3.8 11:21:29 10° SSE 11:25:02 69° ENE 11:28:37 10° N
COSMO-SKYMED 1 2.6 11:21:12 10° S 11:25:27 57° W 11:28:27 19° NNW
Cosmos 841 Rocket 3.3 11:22:41 10° SSW 11:27:46 67° WNW 11:32:54 10° NNE
CZ-4B R/B 2.8 11:25:45 10° N 11:29:14 47° WNW 11:32:48 10° SSW
SJ 16-02 2.9 11:31:06 18° SW 11:31:06 18° SW 11:32:54 10° SSW
Cosmos 1898 Rocket 3.5 11:29:26 16° NNW 11:33:29 57° WSW 11:38:30 10° S
Gbstr 26 Del rocket 4.4 11:26:57 10° SW 11:34:18 80° NW 11:42:29 10° NE
SAR-Lupe-1 3.9 11:32:13 10° SSE 11:35:47 86° WSW 11:39:22 10° NNW
Lacrosse 5 rocket 3.2 11:34:25 10° NNW 11:37:24 21° NE 11:40:17 10° E
Lacrosse 4 Rocket 2.0 11:33:54 10° SSW 11:37:59 60° ESE 11:42:13 10° NNE
Chandra Rocket (1) 3.2 11:35:58 15° WSW 11:38:26 24° S 11:40:45 10° SE
H-2A R/B 2.7 11:35:00 10° N 11:38:35 50° WNW 11:42:12 10° SSW
BREEZE M DEB (TANK) 1.0 11:41:01 42° WSW 11:41:35 74° NW 11:44:23 10° NE
Cosmos 1570 Rocket 4.0 11:36:54 10° SSW 11:42:02 60° WNW 11:47:14 10° N
Cosmos 1544 Rocket 3.9 11:39:00 10° SSW 11:43:03 40° W 11:47:07 10° N
SL-16 R/B 3.0 11:38:42 10° S 11:44:11 55° ESE 11:49:42 10° NNE
FALCON 9 DEB 4.4 11:44:30 22° NW 11:44:43 23° NNW 11:47:29 10° NNE
Atlas Centaur 2 3.6 11:39:07 13° WSW 11:46:14 57° S 11:54:33 10° E
GPS 2-04 Rocket1 4.0 11:45:43 18° WSW 11:47:53 29° SSW 11:51:31 10° SE
NOSS 0 Rocket 4.4 11:43:27 10° SW 11:49:07 37° WNW 11:54:48 10° N
Meteor 1-21 Rocket 4.2 11:44:18 10° NNW 11:50:00 66° W 11:55:45 10° S
Cosmos 1400 Rocket 2.8 11:46:19 10° SSW 11:50:20 67° W 11:54:26 10° N
Cosmos 2278 Rocket 2.2 11:45:03 10° NNW 11:50:42 70° WSW 11:56:19 10° SSE
CENTAUR R/B 3.5 11:46:38 10° S 11:51:54 46° ESE 11:58:02 10° NE
CZ-4B R/B 4.4 11:46:32 10° NNE 11:51:58 47° E 11:57:18 10° S
Cosmos 1328 4.1 11:50:50 10° N 11:54:44 66° E 11:58:37 10° SSE
